Location: Agendoh
(31.0664°N, 8.9343°W)
Time: 09:03:29
(UTC+00:00)

Cosmos 2228 Rocket - Pass Details

Date: 06 December 2021
Orbit: 618 x 651 km, 82.5° (Epoch: 24 January)

Event Time Altitude Azimuth Distance (km) Brightness Sun altitude
Rises 06:39:32 0° 1° (N) 2,941 6.3 -8.8°
Reaches altitude 10° 06:41:51 10° 7° (N) 2,035 5.6 -8.4°
Maximum altitude 06:46:13 47° 82° (E) 853 4.3 -7.5°
Drops below altitude 10° 06:50:35 10° 156° (SSE) 2,040 6.5 -6.6°
Sets 06:52:54 0° 162° (SSE) 2,949 7.2 -6.2°
